Weather History for Charlottesville, VA

Change the Weather History Date:

Tuesday, July 16, 2013

  Actual Average Record
Temperature  
Mean Temperature 82 °F 76 °F  
Max Temperature 92 °F 86 °F 100 °F (1997)
Min Temperature 71 °F 65 °F 56 °F (2001)
Degree Days  
Heating Degree Days 0 0  
Month to date heating degree days 0 0  
Since 1 June heating degree days 2 11  
Since 1 July heating degree days 0 0  
Cooling Degree Days 17 11  
Month to date cooling degree days 201 171  
Year to date cooling degree days 594 476  
Since 1 June cooling degree days 447 390  
Growing Degree Days 32 (Base 50)    
Moisture  
Dew Point 73 °F    
Average Humidity 73    
Maximum Humidity 94    
Minimum Humidity 52    
Precipitation  
Precipitation 0.00 in 0.16 in 0.01 in (2005)
Month to date precipitation 3.41 2.17  
Year to date precipitation 27.10 22.37  
Sea Level Pressure  
Sea Level Pressure 30.22 in    
Wind  
Wind Speed 2 mph (NNE)    
Max Wind Speed 10 mph    
Max Gust Speed 17 mph    
Visibility 10 miles    
Events      
T = Trace of Precipitation, MM = Missing Value Source: NWS Daily Summary

Daily Weather History Graph

Daily Weather History Graph

Search for Another Location

Airport:

Trip Planner

Search our weather history database for the weather conditions in past years. The results will help you decide how hot, cold, wet, or windy it might be!

Date:

Astronomy

Jul. 16, 2013 Rise Set
Actual Time 6:03 AM EDT 8:35 PM EDT
Civil Twilight 5:33 AM EDT 9:06 PM EDT
Nautical Twilight 4:55 AM EDT 9:43 PM EDT
Astronomical Twilight 4:13 AM EDT 10:26 PM EDT
Moon 2:17 PM EDT (7/16) 12:29 AM EDT (7/16)
Length of Visible Light 15h 32m
Length of Day
14h 31m
First Quarter, 56% of the Moon is Illuminated
Jul 16
First Quarter
Jul 22
Full
Jul 29
Last Quarter
Aug 6
New
Aug 14
First Quarter

Hourly Weather History & Observations

Time (EDT) Temp. Heat Index Dew Point Humidity Pressure Visibility Wind Dir Wind Speed Gust Speed Precip Events Conditions
12:53 AM 75.0 °F - 73.0 °F 94% 30.23 in 10.0 mi Calm Calm - N/A   Clear
1:53 AM 73.9 °F - 71.1 °F 91% 30.24 in 10.0 mi Calm Calm - N/A   Clear
2:53 AM 73.0 °F - 71.1 °F 93% 30.23 in 10.0 mi Calm Calm - N/A   Clear
3:53 AM 73.0 °F - 71.1 °F 93% 30.23 in 10.0 mi Calm Calm - N/A   Clear
4:53 AM 73.9 °F - 71.1 °F 91% 30.23 in 10.0 mi Calm Calm - N/A   Clear
5:53 AM 72.0 °F - 70.0 °F 93% 30.25 in 10.0 mi Calm Calm - N/A   Clear
6:53 AM 73.9 °F - 70.0 °F 87% 30.25 in 10.0 mi WSW 3.5 mph - N/A   Clear
7:53 AM 78.1 °F - 71.1 °F 79% 30.25 in 10.0 mi Calm Calm - N/A   Clear
8:53 AM 82.0 °F 87.4 °F 73.0 °F 74% 30.25 in 10.0 mi Calm Calm - N/A   Clear
9:53 AM 87.1 °F 94.5 °F 73.0 °F 63% 30.25 in 10.0 mi Calm Calm - N/A   Clear
10:53 AM 89.1 °F 96.0 °F 72.0 °F 57% 30.25 in 10.0 mi NE 5.8 mph - N/A   Clear
11:53 AM 90.0 °F 96.9 °F 72.0 °F 55% 30.25 in 10.0 mi NNE 6.9 mph - N/A   Clear
12:53 PM 89.1 °F 95.0 °F 71.1 °F 55% 30.23 in 10.0 mi Variable 5.8 mph - N/A   Mostly Cloudy
1:53 PM 90.0 °F 96.9 °F 72.0 °F 55% 30.23 in 10.0 mi Variable 5.8 mph - N/A   Scattered Clouds
2:53 PM 91.9 °F 100.7 °F 73.0 °F 54% 30.21 in 10.0 mi Variable 6.9 mph - N/A   Scattered Clouds
3:53 PM 91.9 °F 99.5 °F 72.0 °F 52% 30.19 in 10.0 mi ENE 5.8 mph - N/A   Clear
4:53 PM 91.9 °F 100.7 °F 73.0 °F 54% 30.19 in 10.0 mi Variable 4.6 mph - N/A   Scattered Clouds
5:53 PM 91.0 °F 99.3 °F 73.0 °F 55% 30.17 in 10.0 mi ENE 3.5 mph - N/A   Scattered Clouds
6:53 PM 89.1 °F 98.0 °F 73.9 °F 61% 30.18 in 10.0 mi Calm Calm - N/A   Clear
7:53 PM 87.1 °F 98.8 °F 77.0 °F 72% 30.19 in 10.0 mi Calm Calm - N/A   Mostly Cloudy
8:53 PM 84.9 °F 93.3 °F 75.0 °F 72% 30.20 in 10.0 mi Calm Calm - N/A   Mostly Cloudy
9:53 PM 84.0 °F 92.6 °F 75.9 °F 76% 30.21 in 10.0 mi Calm Calm - N/A   Mostly Cloudy
10:53 PM 81.0 °F 87.3 °F 75.9 °F 85% 30.21 in 10.0 mi Calm Calm - N/A   Clear
11:53 PM 79.0 °F - 75.9 °F 90% 30.22 in 9.0 mi NW 4.6 mph - N/A   Partly Cloudy